Weather History for Mount Ida, AR

Change the Weather History Date:

Sunday, May 19, 2013

  Actual Average (KHOT) Record (KHOT)
Temperature  
Mean Temperature 78 °F -  
Max Temperature 86 °F 83 °F 94 °F (1956)
Min Temperature 69 °F 59 °F 43 °F (2002)
Cooling Degree Days 12    
Growing Degree Days 28 (Base 50)    
Moisture  
Dew Point 67 °F    
Average Humidity 69    
Maximum Humidity 93    
Minimum Humidity 51    
Precipitation  
Precipitation 0.00 in - - ()
Sea Level Pressure  
Sea Level Pressure 29.80 in    
Wind  
Wind Speed 3 mph (South)    
Max Wind Speed 10 mph    
Max Gust Speed 25 mph    
Visibility 10 miles    
Events      
Averages and records for this station are not official NWS values.
T = Trace of Precipitation, MM = Missing Value Source: NWS Daily Summary

Daily Weather History Graph

Daily Weather History Graph

Search for Another Location

Airport:

Trip Planner

Search our weather history database for the weather conditions in past years. The results will help you decide how hot, cold, wet, or windy it might be!

Date:

Astronomy

May. 19, 2013 Rise Set
Actual Time 6:08 AM CDT 8:13 PM CDT
Civil Twilight 5:40 AM CDT 8:41 PM CDT
Nautical Twilight 5:06 AM CDT 9:15 PM CDT
Astronomical Twilight 4:29 AM CDT 9:52 PM CDT
Moon 2:32 PM CDT (5/19) 2:17 AM CDT (5/19)
Length of Visible Light 15h 00m
Length of Day
14h 04m
Waxing Gibbous, 65% of the Moon is Illuminated
May 19
Waxing Gibbous
May 24
Full
May 31
Last Quarter
Jun 8
New
Jun 16
First Quarter

Hourly Weather History & Observations

Time (CDT) Temp. Heat Index Dew Point Humidity Pressure Visibility Wind Dir Wind Speed Gust Speed Precip Events Conditions
12:53 AM 78.1 °F - 70.0 °F 76% 29.83 in 10.0 mi Calm Calm - N/A   Clear
1:53 AM 77.0 °F - 70.0 °F 79% 29.82 in 10.0 mi Calm Calm - N/A   Clear
2:53 AM 75.0 °F - 69.1 °F 82% 29.83 in 9.0 mi Calm Calm - N/A   Clear
3:53 AM 73.0 °F - 68.0 °F 84% 29.83 in 10.0 mi Calm Calm - N/A   Clear
4:53 AM 73.0 °F - 68.0 °F 84% 29.82 in 9.0 mi Calm Calm - N/A   Clear
5:53 AM 70.0 °F - 66.9 °F 90% 29.83 in 9.0 mi Calm Calm - N/A   Clear
6:53 AM 69.1 °F - 66.9 °F 93% 29.85 in 7.0 mi Calm Calm - N/A   Clear
7:53 AM 71.1 °F - 66.0 °F 84% 29.86 in 10.0 mi Variable 3.5 mph - N/A   Clear
8:53 AM 72.0 °F - 66.0 °F 81% 29.86 in 9.0 mi Variable 4.6 mph - N/A   Clear
9:53 AM 75.0 °F - 66.0 °F 73% 29.86 in 10.0 mi Calm Calm - N/A   Scattered Clouds
10:53 AM 75.9 °F - 64.9 °F 69% 29.86 in 10.0 mi Variable 4.6 mph - N/A   Partly Cloudy
11:26 AM 80.6 °F 82.7 °F 66.2 °F 61% 29.88 in 10.0 mi Variable 4.6 mph - N/A   Partly Cloudy
11:53 AM 78.1 °F - 66.0 °F 66% 29.84 in 10.0 mi Variable 3.5 mph - N/A   Clear
12:53 PM 82.0 °F 83.8 °F 64.9 °F 56% 29.81 in 10.0 mi South 10.4 mph 20.7 mph N/A   Clear
1:53 PM 84.0 °F 86.5 °F 66.9 °F 56% 29.79 in 10.0 mi Variable 5.8 mph - N/A   Clear
2:53 PM 84.0 °F 85.8 °F 64.9 °F 53% 29.78 in 10.0 mi Variable 6.9 mph 21.9 mph N/A   Clear
3:53 PM 86.0 °F 88.2 °F 66.0 °F 51% 29.76 in 10.0 mi Variable 6.9 mph 17.3 mph N/A   Clear
4:53 PM 84.9 °F 88.2 °F 68.0 °F 57% 29.74 in 10.0 mi SSE 8.1 mph 20.7 mph N/A   Clear
5:53 PM 84.0 °F 87.0 °F 68.0 °F 58% 29.73 in 10.0 mi SSE 10.4 mph 23.0 mph N/A   Scattered Clouds
6:39 PM 82.4 °F 85.4 °F 68.0 °F 62% 29.76 in 10.0 mi South 8.1 mph 16.1 mph N/A   Partly Cloudy
6:53 PM 82.9 °F 85.8 °F 68.0 °F 60% 29.73 in 10.0 mi Variable 6.9 mph - N/A   Partly Cloudy
7:53 PM 81.0 °F 83.8 °F 68.0 °F 65% 29.75 in 10.0 mi Variable 6.9 mph - N/A   Clear
8:53 PM 81.0 °F 83.8 °F 68.0 °F 65% 29.76 in 10.0 mi Variable 4.6 mph - N/A   Clear
9:53 PM 80.1 °F 82.3 °F 66.9 °F 64% 29.76 in 10.0 mi Variable 4.6 mph - N/A   Clear
10:53 PM 80.1 °F 82.1 °F 66.0 °F 62% 29.78 in 10.0 mi South 9.2 mph 17.3 mph N/A   Clear
11:53 PM 79.0 °F - 66.0 °F 64% 29.77 in 10.0 mi South 8.1 mph 25.3 mph N/A   Clear